[[{"header":{"parameterUnit":"m.s-1","parameterCategory":1,"la1":30.2991,"la2":30.254,"lo1":-89.0895,"lo2":-89.0444,"dy":0.0017,"dx":0.0017,"nx":28,"ny":28,"refTime":"2025-03-09T09:00:00:Z","depth":0,"parameterNumber":2,"parameterNumberName":"U-component_of_WINDS"},"data":[0,0,0,0,0,0,0,0,0,0,0,0,0,0,0,0,0,0,0,0,0,0,0,0,0,0,0,0,0,0,0,0,0,0,0,0,0,0,0,0,0,0,0,0,0,0,0,0,0,0,0,0,0,0,0,0,0,0,-2.0715,-2.0716,0,-2.0823,-2.0824,-2.0826,-2.0857,-2.0856,-2.0856,-2.0855,-2.0967,-2.097,-2.0974,0,0,0,0,0,0,0,0,0,0,0,0,0,-2.0535,-2.0539,-2.0715,-2.0716,-2.0718,-2.0823,-2.0824,-2.0826,-2.0857,-2.0856,-2.0856,-2.0855,-2.0966,-2.097,-2.0974,0,0,0,0,0,0,0,0,0,0,0,0,0,-2.0625,-2.054,-2.0715,-2.0746,-2.075,-2.0823,-2.0824,-2.0826,-2.0857,-2.0856,-2.0855,-2.0855,-2.0964,-2.097,-2.0975,-2.1025,0,0,-2.0991,-2.0993,0,0,0,0,0,0,0,0,-2.062,-2.0632,-2.074,-2.0744,-2.0748,-2.0826,-2.0802,-2.0893,-2.0857,-2.0816,-2.0855,-2.0854,-2.0921,-2.093,-2.0952,-2.103,-2.1035,-2.0991,-2.0995,-2.0997,-2.0998,0,0,0,0,0,0,0,-2.0614,-2.0628,-2.0758,-2.0741,-2.0747,-2.0754,-2.0766,-2.082,-2.0872,-2.082,-2.0822,-2.0835,-2.0923,-2.0947,-2.0955,-2.1037,-2.0991,-2.0996,-2.0999,-2.1001,-2.116,-2.1161,0,0,0,0,0,0,-2.0602,-2.0622,-2.0754,-2.0761,-2.0681,-2.0758,-2.0772,-2.0802,-2.0872,-2.0881,-2.0835,-2.0836,-2.0938,-2.0948,-2.0959,-2.1021,-2.0997,-2.1002,-2.1005,-2.1159,-2.116,-2.1162,0,0,0,0,0,0,-2.0598,-2.0614,-2.075,-2.0692,-2.071,-2.0762,-2.0796,-2.0804,-2.0828,-2.0883,-2.0893,-2.085,-2.0938,-2.0951,-2.1008,-2.1026,-2.1004,-2.1009,-2.1158,-2.116,-2.1161,-2.1147,0,0,0,0,0,0,-2.0593,-2.0612,-2.0632,-2.0692,-2.0713,-2.0797,-2.0797,-2.0807,-2.0837,-2.0839,-2.09,-2.0909,-2.0938,-2.1,-2.1013,-2.1033,-2.1013,-2.1157,-2.1159,-2.1161,-2.1147,-2.1148,-2.115,0,0,0,0,0,-2.0587,-2.0624,-2.0633,-2.0649,-2.0739,-2.0798,-2.081,-2.0843,-2.0838,-2.0858,-2.0894,-2.0907,-2.1021,-2.1005,-2.1021,-2.1042,-2.1156,-2.1158,-2.116,-2.1146,-2.1148,-2.115,0,0,0,0,0,0,-2.0566,-2.0633,-2.0643,-2.0702,-2.0744,-2.0804,-2.083,-2.0844,-2.0889,-2.0889,-2.0927,-2.0941,-2.0995,-2.1024,-2.1005,-2.1093,-2.1089,-2.1094,-2.1073,-2.1075,-2.1077,-2.1069,-2.1018,0,0,0,0,0,-2.0567,-2.061,-2.0667,-2.0713,-2.0733,-2.0778,-2.0805,-2.0826,-2.0872,-2.089,-2.093,-2.0973,-2.1019,-2.1049,-2.1094,-2.1151,-2.1164,-2.1173,-2.1174,-2.1175,-2.118,-2.1211,-2.1215,-2.1169,-2.1169,-2.1169,0,0,-2.0573,-2.0615,-2.0639,-2.071,-2.0745,-2.0788,-2.0793,-2.0839,-2.0871,-2.0897,-2.0953,-2.0983,-2.1035,-2.1091,-2.1118,-2.1117,-2.1195,-2.1178,-2.1179,-2.1183,-2.1214,-2.1218,-2.1222,-2.1171,-2.1171,-2.117,0,0,-2.0604,-2.064,-2.0682,-2.0716,-2.0769,-2.0799,-2.0808,-2.0866,-2.0887,-2.0943,-2.0963,-2.1002,-2.108,-2.1116,-2.1144,-2.1186,-2.12,-2.12,-2.1209,-2.1239,-2.1242,-2.1246,-2.126,-2.1265,-2.1204,-2.1204,-2.1204,0,-2.0603,-2.0669,-2.0702,-2.0746,-2.0776,-2.0801,-2.0843,-2.0876,-2.0941,-2.0961,-2.0959,-2.1056,-2.1093,-2.1157,-2.1167,-2.119,-2.1202,-2.1193,-2.1239,-2.1243,-2.1246,-2.1261,-2.1266,-2.1203,-2.1203,-2.1203,-2.1204,0,-2.0666,-2.0711,-2.0738,-2.0799,-2.0833,-2.0876,-2.0915,-2.0944,-2.0962,-2.0991,-2.1047,-2.1091,-2.1146,-2.1162,-2.1181,-2.1229,-2.1227,-2.1231,-2.1228,-2.125,-2.1264,-2.127,-2.1203,-2.1203,-2.1203,-2.1203,0,0,-2.0688,-2.0765,-2.0775,-2.0803,-2.0862,-2.0898,-2.0941,-2.0994,-2.1018,-2.1061,-2.1099,-2.1163,-2.1167,-2.1199,-2.1222,-2.1248,-2.1277,-2.1249,-2.1251,-2.1252,-2.1333,-2.1329,-2.1335,-2.1286,-2.1287,-2.1288,-2.1328,0,-2.0727,-2.0806,-2.0836,-2.09,-2.0942,-2.0965,-2.1003,-2.1043,-2.1071,-2.111,-2.1141,-2.1186,-2.1188,-2.1207,-2.1234,-2.1268,-2.1294,-2.1265,-2.1321,-2.1323,-2.1308,-2.1342,-2.1339,-2.1375,-2.1334,-2.1335,-2.1336,0,-2.0783,-2.0826,-2.0894,-2.0947,-2.0966,-2.1,-2.1049,-2.1086,-2.1132,-2.115,-2.1185,-2.1205,-2.1251,-2.1243,-2.1307,-2.1287,-2.1311,-2.1331,-2.1333,-2.134,-2.1331,-2.135,-2.1387,-2.1392,-2.1345,-2.1344,-2.1343,0,-2.0792,-2.0867,-2.0918,-2.0941,-2.1004,-2.1027,-2.1054,-2.1099,-2.1128,-2.1171,-2.119,-2.1238,-2.1264,-2.1301,-2.1333,-2.1324,-2.1393,-2.1388,-2.1409,-2.1408,-2.1424,-2.1422,-2.1465,-2.1439,-2.1439,-2.1438,-2.1438,0,-2.0832,-2.0873,-2.0922,-2.0954,-2.1,-2.1033,-2.1078,-2.1107,-2.1146,-2.1183,-2.1206,-2.124,-2.128,-2.1319,-2.1344,-2.1392,-2.1404,-2.142,-2.1426,-2.1418,-2.1416,-2.1435,-2.1434,-2.144,-2.144,-2.1439,-2.1439,0,-2.0851,-2.0885,-2.0942,-2.0996,-2.1011,-2.1042,-2.1089,-2.112,-2.1148,-2.1194,-2.1207,-2.1251,-2.1298,-2.1333,-2.1394,-2.1411,-2.1462,-2.1469,-2.1447,-2.145,-2.1469,-2.1466,-2.1525,-2.1535,-2.1502,-2.1502,-2.1502,0,-2.0874,-2.0906,-2.0963,-2.0989,-2.1016,-2.1058,-2.1088,-2.1121,-2.1151,-2.1204,-2.1228,-2.1276,-2.1317,-2.139,-2.1428,-2.1474,-2.1482,-2.1499,-2.1489,-2.148,-2.1482,-2.148,-2.1483,-2.1501,-2.1501,-2.1501,-2.1501,0,-2.0912,-2.0927,-2.0969,-2.1015,-2.105,-2.1088,-2.1127,-2.1147,-2.1188,-2.122,-2.1268,-2.1299,-2.136,-2.1407,-2.1457,-2.1485,-2.15,-2.1504,-2.1511,-2.1504,-2.1489,-2.1497,-2.145,-2.1503,-2.1503,-2.1503,-2.1503,-2.1502,-2.0934,-2.0963,-2.1008,-2.1052,-2.1085,-2.1121,-2.1152,-2.1183,-2.1223,-2.1276,-2.1293,-2.1342,-2.1386,-2.1454,-2.1482,-2.152,-2.1521,-2.1531,-2.1534,-2.1536,-2.1535,-2.1483,-2.153,-2.153,-2.153,-2.153,-2.153,0,-2.0973,-2.1002,-2.1043,-2.1097,-2.1132,-2.1142,-2.1185,-2.1213,-2.1256,-2.1295,-2.1334,-2.1388,-2.1434,-2.1474,-2.1521,-2.1544,-2.1552,-2.1555,-2.1554,-2.156,-2.1533,-2.1522,-2.1548,-2.1548,-2.1548,-2.1548,-2.1548,-2.1548,-2.0998,-2.1047,-2.1067,-2.1132,-2.1161,-2.1209,-2.1233,-2.1266,-2.1297,-2.1356,-2.1394,-2.142,-2.1459,-2.1509,-2.155,-2.1561,-2.1577,-2.1579,-2.1591,-2.1565,-2.1562,-2.156,-2.155,-2.1582,-2.1582,-2.1615,-2.1616,-2.1616]},{"header":{"parameterUnit":"m.s-1","parameterCategory":1,"la1":30.2991,"la2":30.254,"lo1":-89.0895,"lo2":-89.0444,"dy":0.0017,"dx":0.0017,"nx":28,"ny":28,"refTime":"2025-03-09T09:00:00:Z","depth":0,"parameterNumber":3,"parameterNumberName":"V-component_of_WINDS"},"data":[0,0,0,0,0,0,0,0,0,0,0,0,0,0,0,0,0,0,0,0,0,0,0,0,0,0,0,0,0,0,0,0,0,0,0,0,0,0,0,0,0,0,0,0,0,0,0,0,0,0,0,0,0,0,0,0,0,0,-6.4247,-6.4247,0,-6.4298,-6.4299,-6.43,-6.4217,-6.4214,-6.4211,-6.4209,-6.4257,-6.4261,-6.4265,0,0,0,0,0,0,0,0,0,0,0,0,0,-6.4071,-6.4075,-6.4247,-6.4247,-6.4248,-6.4298,-6.4299,-6.43,-6.4218,-6.4214,-6.4211,-6.4208,-6.4256,-6.4261,-6.4266,0,0,0,0,0,0,0,0,0,0,0,0,0,-6.4138,-6.4076,-6.4246,-6.4213,-6.4211,-6.4298,-6.4299,-6.43,-6.4218,-6.4214,-6.421,-6.4206,-6.4255,-6.426,-6.4266,-6.4387,0,0,-6.4284,-6.4287,0,0,0,0,0,0,0,0,-6.4134,-6.4144,-6.4217,-6.4216,-6.4213,-6.4247,-6.4255,-6.4329,-6.4219,-6.4215,-6.4209,-6.4204,-6.4257,-6.4263,-6.4281,-6.439,-6.4392,-6.4285,-6.4288,-6.4291,-6.4292,0,0,0,0,0,0,0,-6.413,-6.4141,-6.4267,-6.4218,-6.4216,-6.4194,-6.4199,-6.4269,-6.4259,-6.4215,-6.4209,-6.4217,-6.4255,-6.4276,-6.4282,-6.4392,-6.4285,-6.429,-6.4293,-6.4296,-6.4602,-6.4606,0,0,0,0,0,0,-6.413,-6.4138,-6.4265,-6.4268,-6.4162,-6.42,-6.4206,-6.424,-6.4258,-6.4257,-6.4221,-6.4213,-6.4268,-6.4275,-6.4283,-6.4426,-6.4291,-6.4296,-6.43,-6.4597,-6.4603,-6.4608,0,0,0,0,0,0,-6.4126,-6.4142,-6.4263,-6.4202,-6.4216,-6.4208,-6.4247,-6.4244,-6.4264,-6.4262,-6.426,-6.4244,-6.4265,-6.4275,-6.4362,-6.4427,-6.4299,-6.4304,-6.4592,-6.4599,-6.4605,-6.4713,0,0,0,0,0,0,-6.4122,-6.4141,-6.4188,-6.4204,-6.4219,-6.4343,-6.4251,-6.4248,-6.4275,-6.4266,-6.4284,-6.4282,-6.4262,-6.4354,-6.4368,-6.4432,-6.4309,-6.4586,-6.4595,-6.4603,-6.4704,-6.4723,-6.4739,0,0,0,0,0,-6.4116,-6.4216,-6.4191,-6.4207,-6.4278,-6.4347,-6.4356,-6.4332,-6.4281,-6.4327,-6.4326,-6.4282,-6.4417,-6.4364,-6.4379,-6.4446,-6.4582,-6.4592,-6.4602,-6.4696,-6.4719,-6.4739,0,0,0,0,0,0,-6.4207,-6.4217,-6.419,-6.4298,-6.4323,-6.4333,-6.4391,-6.4357,-6.4395,-6.4385,-6.4352,-6.4357,-6.4451,-6.4457,-6.4397,-6.4564,-6.4491,-6.4505,-6.4557,-6.4579,-6.4596,-6.4592,-6.4314,0,0,0,0,0,-6.424,-6.4296,-6.4301,-6.4396,-6.441,-6.4399,-6.4428,-6.4407,-6.4431,-6.444,-6.4445,-6.4468,-6.4515,-6.4547,-6.4591,-6.4704,-6.4706,-6.4758,-6.4775,-6.479,-6.4802,-6.4862,-6.4885,-6.4642,-6.4642,-6.4641,0,0,-6.4308,-6.432,-6.4358,-6.4415,-6.4431,-6.4489,-6.4408,-6.4472,-6.4514,-6.4449,-6.4532,-6.4537,-6.456,-6.4661,-6.4705,-6.4669,-6.487,-6.4803,-6.4815,-6.4819,-6.4875,-6.4898,-6.4918,-6.4649,-6.4647,-6.4646,0,0,-6.4461,-6.4477,-6.4558,-6.4576,-6.4603,-6.4594,-6.4614,-6.463,-6.463,-6.4714,-6.4666,-6.4714,-6.4797,-6.4816,-6.4836,-6.4997,-6.4957,-6.5012,-6.5104,-6.5163,-6.5182,-6.5198,-6.5255,-6.5276,-6.5024,-6.5024,-6.5024,0,-6.4542,-6.4629,-6.4603,-6.4672,-6.4698,-6.4643,-6.4723,-6.4742,-6.4781,-6.4799,-6.4758,-6.4861,-6.4872,-6.4977,-6.5016,-6.5034,-6.5054,-6.5009,-6.5181,-6.5198,-6.5213,-6.5267,-6.5288,-6.5031,-6.503,-6.5029,-6.5029,0,-6.4727,-6.4787,-6.4849,-6.489,-6.4923,-6.4997,-6.4981,-6.5017,-6.4994,-6.499,-6.5074,-6.5086,-6.5132,-6.5155,-6.5132,-6.5256,-6.5232,-6.5187,-6.5113,-6.5243,-6.5293,-6.5313,-6.504,-6.5037,-6.5036,-6.5034,0,0,-6.4939,-6.4965,-6.4988,-6.5006,-6.5031,-6.5076,-6.5147,-6.5193,-6.5224,-6.5252,-6.531,-6.5382,-6.534,-6.5363,-6.5342,-6.5393,-6.5519,-6.5341,-6.5341,-6.5374,-6.5655,-6.5689,-6.5714,-6.5493,-6.5497,-6.55,-6.5653,0,-6.5092,-6.5217,-6.5195,-6.5315,-6.5371,-6.5319,-6.5381,-6.5402,-6.54,-6.5445,-6.5441,-6.5492,-6.5434,-6.5447,-6.5496,-6.5494,-6.5575,-6.5482,-6.5546,-6.5548,-6.5541,-6.574,-6.5776,-6.592,-6.5673,-6.5676,-6.5678,0,-6.5287,-6.5325,-6.5451,-6.5467,-6.5489,-6.5546,-6.5585,-6.563,-6.5652,-6.5646,-6.5673,-6.5642,-6.571,-6.5636,-6.573,-6.5667,-6.5691,-6.5694,-6.5699,-6.5704,-6.5621,-6.5749,-6.5965,-6.5987,-6.5709,-6.5706,-6.5704,0,-6.5429,-6.5511,-6.5597,-6.5614,-6.5635,-6.5675,-6.5685,-6.5704,-6.5732,-6.5766,-6.5784,-6.5826,-6.5848,-6.588,-6.5861,-6.5808,-6.5958,-6.5882,-6.5954,-6.5955,-6.5988,-6.5986,-6.621,-6.6004,-6.6004,-6.6004,-6.6003,0,-6.5602,-6.5681,-6.5661,-6.5714,-6.5801,-6.5775,-6.586,-6.5864,-6.5881,-6.5932,-6.589,-6.5938,-6.591,-6.5956,-6.5941,-6.6021,-6.6031,-6.6028,-6.6023,-6.6032,-6.6032,-6.6047,-6.6036,-6.6009,-6.6008,-6.6007,-6.6006,0,-6.5776,-6.5766,-6.5856,-6.5869,-6.5874,-6.5937,-6.5947,-6.5995,-6.599,-6.6056,-6.6069,-6.606,-6.6112,-6.6096,-6.6152,-6.6142,-6.6243,-6.6225,-6.6236,-6.6231,-6.6305,-6.6298,-6.6546,-6.6577,-6.6352,-6.6354,-6.6356,0,-6.5887,-6.5947,-6.5967,-6.5999,-6.6013,-6.6065,-6.6094,-6.6071,-6.6103,-6.6132,-6.6177,-6.6226,-6.6263,-6.6349,-6.6346,-6.6388,-6.6371,-6.6455,-6.6377,-6.6384,-6.6371,-6.6368,-6.6374,-6.647,-6.6473,-6.6475,-6.6477,0,-6.6085,-6.6077,-6.6122,-6.6166,-6.6202,-6.6235,-6.6263,-6.6291,-6.6269,-6.6307,-6.636,-6.639,-6.6447,-6.6496,-6.6534,-6.6542,-6.6506,-6.6502,-6.652,-6.653,-6.6534,-6.6532,-6.6278,-6.6496,-6.6494,-6.6492,-6.6491,-6.6491,-6.623,-6.6281,-6.6303,-6.6354,-6.6373,-6.6401,-6.6447,-6.6448,-6.6493,-6.6539,-6.6521,-6.6583,-6.6602,-6.665,-6.6664,-6.671,-6.6678,-6.6705,-6.6712,-6.6719,-6.6728,-6.6527,-6.6717,-6.6716,-6.6716,-6.6715,-6.6715,0,-6.6426,-6.6438,-6.6485,-6.6527,-6.6567,-6.6531,-6.656,-6.6595,-6.665,-6.6673,-6.6711,-6.6772,-6.6818,-6.682,-6.6863,-6.69,-6.6884,-6.6912,-6.6909,-6.6911,-6.6755,-6.6734,-6.6924,-6.6924,-6.6924,-6.6924,-6.6924,-6.6924,-6.6532,-6.6616,-6.6611,-6.6703,-6.6713,-6.6775,-6.6794,-6.6819,-6.6836,-6.6907,-6.6946,-6.6947,-6.6961,-6.7004,-6.7045,-6.7044,-6.7061,-6.7096,-6.7088,-6.6943,-6.6922,-6.6902,-6.6883,-6.71,-6.71,-6.724,-6.7241,-6.7242]}]]